sat.trackr.live / text

‹ back to catalog

STARLINK-31587

NORAD 59570 · 2024-076G

PAYLOAD ACTIVE UNKNOWN

§ Identity

Operator
Country
US
Launch date
2024-04-23
Launch site
AFETR
Launch vehicle
Mass (kg)
RCS (m²)

Purposes: comms

External: N2YO · Heavens-Above · Gunter

§ Orbital elements

Epoch: 2026-05-24T19:38:24.887904Z

Period
94.27 min
Inclination
43.0043°
Eccentricity
0.0001456
Mean motion
15.27586829 rev/d
Perigee alt
482.0 km
Apogee alt
484.0 km
Semi-major
6,861.2 km
B*
-8.9975e-6
RAAN
299.2366°
Arg perigee
277.2269°
Mean anomaly
82.8417°
Rev number
11,816

§ Raw data

STARLINK-315871 59570U 24076G   26144.81834361 -.00000510  00000+0 -89975-5 0  99962 59570  43.0043 299.2366 0001456 277.2269  82.8417 15.27586829118160

JSON: /api/v1/satellites/59570 · /tle

For live sub-satellite position, see the globe view (requires WebGL).

§ Visibility from observer

Set your observer location to see the next 7 days of passes ≥ 10°. The values pass through the URL so the page stays shareable.

No JS? Fill the form by hand. The geolocation button needs JavaScript.